Regional Weather Roundup
Issued by NWS Albany, NY

Home | Current Version | Previous Version | Text Only | Print | Product List | Glossary On
Versions: 1 2 3 4 5 6 7 8 9 10 11 12 13 14 15 16 17 18 19 20 21 22 23 24 25 26 27 28 29 30 31 32 33 34 35 36 37 38 39 40 41 42 43 44 45 46 47 48 49 50
578
ASUS41 KALY 280410
RWRALY

NEW YORK STATE HOURLY WEATHER ROUNDUP
NATIONAL WEATHER SERVICE ALBANY NY
1200 AM EDT FRI JUL 28 2017

NOTE: "FAIR" INDICATES FEW OR NO CLOUDS BELOW 12,000 FEET WITH NO
SIGNIFICANT WEATHER AND/OR NO OBSTRUCTIONS TO VISIBILITY.

NYZ032-033-038>043-046>054-057>066-NYZ062>081-082-084-280500-
EAST


CITY           SKY/WX    TMP DP  RH WIND       PRES   REMARKS
ALBANY         FOG       65  63  93 W3        29.88S VSB 1/4
GLENS FALLS    CLEAR     65  64  97 CALM      29.87R
POUGHKEEPSIE   PTCLDY    67  65  93 CALM      29.87S
NEWBURGH       PTCLDY    68  68 100 CALM      29.90S
MONTGOMERY     CLOUDY    67  65  93 CALM      29.89R FOG
WHITE PLAINS   CLOUDY    71  68  90 CALM      29.88F
ISLIP          CLOUDY    73  71  93 SW9       29.87F
NEW YORK CITY  MOCLDY    76  71  85 SW8       29.86F
CENTRAL PARK   MOCLDY    74  69  85 VRB6      29.90F
$$

NYZ005>009-017-018-044>046-055-056-280500-
CENTRAL


CITY           SKY/WX    TMP DP  RH WIND       PRES   REMARKS
FULTON         PTCLDY    65  63  93 E3        29.89S
SYRACUSE       PTCLDY    63  63 100 SE3       29.88F
ROME           CLEAR     63  62  97 CALM      29.90R
ELMIRA         PTCLDY    66  65  96 CALM      29.89F
BINGHAMTON     MOCLDY    67  62  84 N5        29.93S
$$

NYZ026>034-041>043-087-280500-
NORTH


CITY           SKY/WX    TMP DP  RH WIND       PRES   REMARKS
WATERTOWN      FOG       63  63 100 CALM      29.90S VSB 1/4
FORT DRUM      NOT AVBL
OGDENSBURG     FAIR      63  61  92 NW3       29.90R
MASSENA        MOCLDY    66  62  87 NW6       29.90R
SARANAC LAKE   FOG       57  57 100 CALM      29.91S VSB 1/4
PLATTSBURGH    CLOUDY    66  62  87 W5        29.85R
$$

NYZ001>004-010>016-019>021-085-280500-
WEST


CITY           SKY/WX    TMP DP  RH WIND       PRES   REMARKS
NIAGARA FALLS  CLOUDY    71  64  78 N8        29.91R
BUFFALO        CLOUDY    71  65  81 N5        29.90S
DUNKIRK        CLOUDY    67  65  93 CALM      29.91R
JAMESTOWN      CLOUDY    70  61  73 N6        29.94S
WELLSVILLE     PTCLDY    67  64  90 CALM      29.96F
ROCHESTER      MOCLDY    68  66  93 CALM      29.90S
PENN YAN       CLOUDY    69  65  86 CALM      29.91F
$$

             KEY
       WCI = WIND CHILL INDEX
       VSB = VISIBILITY
       HX  = HEAT INDEX
$$




USA.gov is the U.S. government's official web portal to all federal, state and local government web resources and services.